Regional Weather Roundup
Issued by NWS

Home | Current Version | Previous Version | Graphics & Text | Print | Product List | Glossary On
Versions: 1 2 3 4 5 6 7 8 9 10 11 12 13 14 15 16 17 18 19 20 21 22 23 24 25 26 27 28 29 30 31 32 33 34 35 36 37 38 39 40 41 42 43 44 45 46 47 48 49 50
000
ASUS43 KLMK 261910
RWRKY
KENTUCKY REGIONAL WEATHER ROUNDUP
NATIONAL WEATHER SERVICE LOUISVILLE KY
200 PM EST SUN FEB 26 2017

NOTE "FAIR" INDICATES FEW OR NO CLOUDS BELOW 12,000 FEET
WITH NO SIGNIFICANT WEATHER AND/OR OBSTRUCTIONS TO VISIBILITY.

KYZ001>023-026-027-061>063-070>075-262000-
WESTERN AND SOUTH CENTRAL KENTUCKY

CITY           SKY/WX    TMP DP  RH WIND       PRES   REMARKS
PADUCAH        PTSUNNY   50  18  28 S6        30.15F
HENDERSON      SUNNY     50  18  27 SW12G17   30.17F
OWENSBORO      SUNNY     50  17  27 S12       30.18F
HOPKINSVILLE   SUNNY     51  16  25 SE7       30.17F
BOWLING GREEN  SUNNY     51  15  23 VRB7      30.20F
GLASGOW        SUNNY     49  17  28 S5        30.20F
$$

KYZ024-025-028>034-038-045-046-053-262000-
NORTH CENTRAL KENTUCKY

CITY           SKY/WX    TMP DP  RH WIND       PRES   REMARKS
LOUISVILLE/SDF MOSUNNY   48  11  22 S9        30.19F
LOUISVILLE/LOU SUNNY     47  13  25 SW7       30.19F
FORT KNOX      SUNNY     47  15  27 S7        30.17F
$$

KYZ035>037-039>044-047>052-055>060-089>105-262000-
NORTHEAST KENTUCKY

CITY           SKY/WX    TMP DP  RH WIND       PRES   REMARKS
LEXINGTON      SUNNY     46  13  26 VRB5      30.19F
COVINGTON      MOSUNNY   44  14  29 SW8       30.16F
FRANKFORT      SUNNY     46  12  25 S9        30.18F
$$

KYZ054-064>069-076>088-106>120-262000-
SOUTHEAST KENTUCKY

CITY           SKY/WX    TMP DP  RH WIND       PRES   REMARKS
JACKSON        SUNNY     43  14  31 CALM      30.19F
LONDON         SUNNY     44  13  28 SE5       30.21F
SOMERSET       SUNNY     45  14  29 CALM      30.22F
MIDDLESBORO    SUNNY     48  18  30 S8        30.22F
MONTICELLO     CLEAR     48  17  29 W14       30.22F
$$





USA.gov is the U.S. government's official web portal to all federal, state and local government web resources and services.